Inverness, FL

8:56 AM EDT on July 29, 2016 (GMT -0400)
Inverness

Weather History for KINF - December, 2012

Change the Weather History Date:

Saturday, December 8, 2012

  Actual Average (KOCF) Record (KOCF)
Temperature  
Mean Temperature 68 °F -  
Max Temperature 77 °F 70 °F 82 °F (1998)
Min Temperature 60 °F 48 °F 23 °F (2010)
Cooling Degree Days 4    
Growing Degree Days 18 (Base 50)    
Moisture  
Dew Point 63 °F    
Average Humidity 93    
Maximum Humidity 100    
Minimum Humidity 65    
Precipitation  
Precipitation 0.33 in - - ()
Sea Level Pressure  
Sea Level Pressure 30.04 in    
Wind  
Wind Speed 2 mph (East)    
Max Wind Speed 6 mph    
Max Gust Speed -    
Visibility 4 miles    
Events Fog , Rain    
Averages and records for this station are not official NWS values.
T = Trace of Precipitation, MM = Missing Value Source: NWS Daily Summary

Daily Weather History Graph

Daily Weather History Graph

Search for Another Location

Airport or City:

Trip Planner

Search our weather history database for the weather conditions in past years. The results will help you decide how hot, cold, wet, or windy it might be!

Date:

Astronomy

Dec. 08, 2012 Rise Set
Actual Time 7:10 AM EST 5:32 PM EST
Civil Twilight 6:44 AM EST 5:58 PM EST
Nautical Twilight 6:15 AM EST 6:27 PM EST
Astronomical Twilight 5:46 AM EST 6:56 PM EST
Moon 1:54 AM EST (12/8) 1:43 PM EST (12/8)
Length of Visible Light 11h 13m
Length of Day
10h 21m
Waning Crescent, 28% of the Moon is Illuminated
Dec 8
Waning Crescent
Dec 13
New
Dec 20
First Quarter
Dec 28
Full
Jan 4
Last Quarter

Hourly Weather History & Observations

Time (EST) Temp. Dew Point Humidity Pressure Visibility Wind Dir Wind Speed Gust Speed Precip Events Conditions
12:15 AM 62.6 °F 62.6 °F 100% 30.02 in 5.0 mi Calm Calm - N/A   Overcast
12:35 AM 62.6 °F 62.6 °F 100% 30.02 in 4.0 mi East 4.6 mph - N/A   Overcast
12:55 AM 62.6 °F 62.6 °F 100% 30.02 in 2.5 mi NE 3.5 mph - N/A   Overcast
1:15 AM 62.6 °F 62.6 °F 100% 30.02 in 3.0 mi East 3.5 mph - N/A   Overcast
1:35 AM 62.6 °F 62.6 °F 100% 30.02 in 2.0 mi NE 3.5 mph - N/A   Overcast
1:55 AM 62.6 °F 62.6 °F 100% 30.02 in 1.0 mi East 4.6 mph - N/A   Overcast
2:15 AM 62.6 °F 62.6 °F 100% 30.02 in 1.0 mi NE 3.5 mph - N/A   Overcast
2:35 AM 62.6 °F 62.6 °F 100% 30.02 in 0.8 mi NE 4.6 mph - N/A   Overcast
2:55 AM 62.6 °F 60.8 °F 94% 30.01 in 0.8 mi NE 4.6 mph - N/A   Overcast
3:15 AM 62.6 °F 60.8 °F 94% 30.01 in 0.5 mi Calm Calm - N/A Fog Fog
3:35 AM 62.6 °F 60.8 °F 94% 30.01 in 0.5 mi Calm Calm - N/A Fog Fog
3:55 AM 62.6 °F 62.6 °F 100% 30.01 in 0.8 mi ENE 3.5 mph - N/A   Overcast
4:15 AM 62.6 °F 60.8 °F 94% 30.01 in 0.5 mi NE 5.8 mph - N/A Fog Fog
4:35 AM 60.8 °F 60.8 °F 100% 30.01 in 0.5 mi ENE 4.6 mph - N/A Fog Fog
4:55 AM 60.8 °F 60.8 °F 100% 30.01 in 0.5 mi East 3.5 mph - N/A Fog Fog
5:15 AM 60.8 °F 60.8 °F 100% 30.02 in 0.5 mi NE 4.6 mph - N/A Fog Fog
5:35 AM 60.8 °F 60.8 °F 100% 30.02 in 0.8 mi ENE 3.5 mph - N/A   Overcast
5:55 AM 60.8 °F 60.8 °F 100% 30.03 in 0.5 mi NE 4.6 mph - N/A Fog Fog
6:15 AM 60.8 °F 60.8 °F 100% 30.03 in 1.0 mi ENE 3.5 mph - N/A   Overcast
6:35 AM 60.8 °F 60.8 °F 100% 30.03 in 0.5 mi ENE 3.5 mph - N/A Fog Fog
6:55 AM 60.8 °F 60.8 °F 100% 30.04 in 0.5 mi East 3.5 mph - N/A Rain Light Rain
7:15 AM 60.8 °F 60.8 °F 100% 30.04 in 0.8 mi East 4.6 mph - N/A   Overcast
7:35 AM 60.8 °F 60.8 °F 100% 30.05 in 0.2 mi ENE 5.8 mph - N/A Fog Fog
7:55 AM 60.8 °F 60.8 °F 100% 30.06 in 0.2 mi ENE 4.6 mph - N/A   Light Drizzle
8:15 AM 60.8 °F 60.8 °F 100% 30.06 in 0.2 mi East 4.6 mph - N/A Fog Fog
8:35 AM 60.8 °F 60.8 °F 100% 30.06 in 0.2 mi Calm Calm - N/A Fog Fog
8:55 AM 60.8 °F 60.8 °F 100% 30.07 in 0.5 mi East 3.5 mph - N/A Fog Fog
9:15 AM 60.8 °F 60.8 °F 100% 30.07 in 1.2 mi Calm Calm - N/A   Overcast
9:35 AM 62.6 °F 62.6 °F 100% 30.08 in 1.2 mi Calm Calm - N/A   Overcast
9:55 AM 62.6 °F 62.6 °F 100% 30.09 in 1.8 mi ESE 3.5 mph - N/A   Overcast
10:15 AM 62.6 °F 62.6 °F 100% 30.09 in 3.0 mi Calm Calm - N/A   Overcast
10:35 AM 62.6 °F 62.6 °F 100% 30.09 in 4.0 mi East 3.5 mph - N/A   Overcast
10:55 AM 64.4 °F 62.6 °F 94% 30.08 in 3.0 mi ESE 3.5 mph - N/A   Overcast
11:15 AM 64.4 °F 64.4 °F 100% 30.07 in 4.0 mi East 3.5 mph - N/A   Overcast
11:35 AM 66.2 °F 64.4 °F 94% 30.07 in 7.0 mi Calm Calm - N/A   Overcast
11:55 AM 68.0 °F 64.4 °F 88% 30.06 in 10.0 mi SE 3.5 mph - N/A   Overcast
12:15 PM 68.0 °F 64.4 °F 88% 30.05 in 10.0 mi SE 4.6 mph - N/A   Overcast
12:35 PM 69.8 °F 64.4 °F 83% 30.03 in 10.0 mi SSE 4.6 mph - N/A   Overcast
12:55 PM 69.8 °F 64.4 °F 83% 30.03 in 10.0 mi SSE 4.6 mph - N/A   Overcast
1:15 PM 71.6 °F 64.4 °F 78% 30.02 in 10.0 mi ESE 4.6 mph - N/A   Overcast
1:35 PM 73.4 °F 64.4 °F 73% 30.02 in 10.0 mi SSE 3.5 mph - N/A   Mostly Cloudy
1:55 PM 73.4 °F 64.4 °F 73% 30.01 in 10.0 mi Calm Calm - N/A   Scattered Clouds
2:15 PM 77.0 °F 64.4 °F 65% 30.01 in 10.0 mi SE 3.5 mph - N/A   Mostly Cloudy
2:35 PM 75.2 °F 64.4 °F 69% 30.01 in 10.0 mi Calm Calm - N/A   Scattered Clouds
2:55 PM 77.0 °F 64.4 °F 65% 30.00 in 10.0 mi SE 3.5 mph - N/A   Clear
3:15 PM 75.2 °F 64.4 °F 69% 30.00 in 10.0 mi Calm Calm - N/A   Clear
3:35 PM 75.2 °F 64.4 °F 69% 30.01 in 10.0 mi Calm Calm - N/A   Clear
3:55 PM 77.0 °F 64.4 °F 65% 30.01 in 10.0 mi Calm Calm - N/A   Clear
4:15 PM 73.4 °F 64.4 °F 73% 30.01 in 10.0 mi Calm Calm - N/A   Clear
4:35 PM 71.6 °F 64.4 °F 78% 30.01 in 10.0 mi Calm Calm - N/A   Scattered Clouds
4:55 PM 71.6 °F 64.4 °F 78% 30.00 in 10.0 mi Calm Calm - N/A   Mostly Cloudy
5:15 PM 71.6 °F 64.4 °F 78% 30.01 in 10.0 mi Calm Calm - N/A   Overcast
5:35 PM 71.6 °F 66.2 °F 83% 30.01 in 10.0 mi Calm Calm - N/A   Overcast
5:55 PM 71.6 °F 66.2 °F 83% 30.02 in 10.0 mi Calm Calm - N/A Rain Rain
6:15 PM 69.8 °F 68.0 °F 94% 30.03 in 3.0 mi North 3.5 mph - 0.18 in Rain Rain
6:35 PM 68.0 °F 68.0 °F 100% 30.03 in 7.0 mi Calm Calm - 0.18 in   Mostly Cloudy
6:55 PM 68.0 °F 68.0 °F 100% 30.04 in 7.0 mi Calm Calm - 0.18 in   Overcast
7:15 PM 68.0 °F 68.0 °F 100% 30.04 in 7.0 mi Calm Calm - N/A   Overcast
7:35 PM 68.0 °F 68.0 °F 100% 30.05 in 3.0 mi Calm Calm - N/A   Mostly Cloudy
7:55 PM 66.2 °F 66.2 °F 100% 30.06 in 0.8 mi Calm Calm - N/A   Mostly Cloudy
8:15 PM 66.2 °F 66.2 °F 100% 30.06 in 0.5 mi Calm Calm - N/A Fog Fog
8:35 PM 66.2 °F 64.4 °F 94% 30.06 in 1.0 mi Calm Calm - N/A   Mist
8:55 PM 64.4 °F 64.4 °F 100% 30.07 in 0.5 mi Calm Calm - N/A Fog Fog
9:15 PM 64.4 °F 64.4 °F 100% 30.07 in 0.8 mi Calm Calm - N/A   Overcast
9:35 PM 64.4 °F 64.4 °F 100% 30.07 in 0.5 mi Calm Calm - N/A Fog Fog
9:55 PM 64.4 °F 64.4 °F 100% 30.07 in 0.5 mi Calm Calm - N/A Fog Fog
10:15 PM 64.4 °F 64.4 °F 100% 30.07 in 1.0 mi Calm Calm - N/A   Mostly Cloudy
10:35 PM 62.6 °F 62.6 °F 100% 30.08 in 0.8 mi Calm Calm - N/A   Overcast
10:55 PM 64.4 °F 62.6 °F 94% 30.08 in 5.0 mi Calm Calm - N/A   Overcast
11:15 PM 64.4 °F 64.4 °F 100% 30.08 in 2.5 mi Calm Calm - 0.08 in Rain Heavy Rain
11:35 PM 66.2 °F 66.2 °F 100% 30.08 in 4.0 mi Calm Calm - 0.12 in Rain Rain
11:55 PM 68.0 °F 68.0 °F 100% 30.08 in 4.0 mi ESE 4.6 mph - 0.15 in   Heavy Drizzle